Wetbulb
62.17 60.27 60.65 58.79 59.38 57.26 59.14 61.24 60.58 58.58 56.76 53.03 51.70 50.33 50.01 49.25 49.21 48.29 48.02 46.81 47.42 48.09
60.47 60.33 60.23 58.96 58.26 57.45 56.75 58.40 59.02 58.26 55.91 53.51 51.66 50.50 49.54 49.17 48.37 47.71 47.16 47.19 47.56 48.02
58.43 60.03 60.49 58.18 56.23 54.82 55.03 57.14 58.23 56.42 55.58 53.77 52.24 50.67 49.73 48.83 48.51 48.66 47.34 47.59 47.71 45.63
58.02 58.71 57.97 56.96 54.45 53.66 54.85 56.36 57.37 56.49 55.16 53.83 52.14 50.84 49.87 49.29 49.04 48.44 47.74 47.06 46.75 44.89
57.09 56.89 56.32 55.74 53.83 53.68 54.54 56.17 56.25 56.47 55.38 54.36 53.03 51.12 50.42 49.55 50.10 49.62 48.24 47.05 44.95 44.10
56.04 55.42 54.89 54.49 53.66 53.00 54.16 55.57 55.78 55.62 55.01 53.95 52.99 51.92 51.19 50.83 50.49 50.33 50.01 47.42 45.58 44.07
55.96 55.15 55.31 54.52 53.10 52.75 53.38 54.63 54.99 55.32 54.89 54.20 53.34 52.74 51.97 51.12 50.83 50.42 49.41 47.01 45.63 44.32
55.50 55.90 54.83 53.31 52.55 51.99 52.90 53.80 54.77 54.38 54.06 53.94 53.26 52.80 52.28 51.80 50.76 49.98 47.88 45.70 44.35 44.02
55.54 54.73 53.50 52.51 51.49 50.92 51.70 52.26 53.05 52.59 52.43 51.90 53.19 45.49 45.27 49.31 50.29 49.13 48.14 45.45 42.98 42.59
55.28 54.65 53.63 52.68 51.44 50.52 50.36 50.49 51.48 51.73 51.30 51.05 51.25 42.65 43.47 43.85 50.08 48.50 47.47 45.34 43.12 41.19
54.93 54.24 53.55 52.70 51.22 50.50 49.81 49.46 49.52 49.54 50.01 49.80 48.27 41.21 41.75 41.31 47.03 46.06 45.57 44.17 42.83 42.21
54.79 54.39 53.28 52.18 51.03 50.23 49.43 48.70 48.70 48.70 48.05 48.40 47.09 40.33 40.27 42.46 44.77 43.63 43.09 41.93 41.33 41.54
55.30 54.34 53.00 51.97 50.99 50.19 49.66 48.60 47.92 47.39 47.62 45.26 45.91 39.09 39.56 43.41 45.09 42.15 41.33 40.09 39.89 37.95
55.38 54.22 53.38 52.36 51.27 49.71 48.66 46.95 46.33 45.81 45.30 46.07 45.39 41.14 39.19 40.14 44.15 43.50 40.58 40.44 38.14 38.53
MSLP
1013.89 1015.70 1016.21 1017.06 1018.14 1019.05 1019.78 1020.28 1021.00 1021.78 1022.40 1023.13 1023.76 1024.50 1025.26 1025.77 1026.28 1026.94 1027.58 1028.07 1028.55 1028.94
1013.76 1014.89 1015.61 1016.20 1017.29 1018.00 1018.96 1019.66 1020.43 1021.26 1021.98 1022.63 1023.28 1023.90 1024.68 1025.34 1025.93 1026.56 1027.17 1027.62 1028.12 1028.53
1012.99 1014.17 1015.07 1015.38 1016.43 1017.49 1018.43 1019.06 1019.91 1020.73 1021.49 1022.04 1022.81 1023.50 1024.09 1024.72 1025.41 1026.03 1026.59 1027.19 1027.87 1028.23
1012.48 1013.36 1014.49 1014.99 1015.67 1016.73 1017.86 1018.42 1019.24 1019.96 1020.82 1021.49 1022.13 1022.96 1023.71 1024.17 1024.74 1025.47 1026.00 1026.60 1027.26 1027.69
1011.87 1012.85 1014.21 1014.77 1015.07 1016.12 1017.04 1017.55 1018.32 1019.33 1020.04 1020.76 1021.46 1022.15 1023.01 1023.45 1024.10 1024.65 1025.41 1025.94 1026.79 1027.18
1011.88 1012.80 1013.59 1014.25 1014.66 1015.48 1016.24 1016.87 1017.90 1018.57 1019.28 1020.03 1020.74 1021.51 1022.25 1022.78 1023.29 1023.89 1024.55 1025.19 1026.13 1026.53
1011.05 1011.91 1012.95 1013.62 1014.05 1014.73 1015.36 1016.28 1017.22 1017.81 1018.53 1019.23 1020.04 1020.85 1021.50 1022.14 1022.79 1023.35 1023.97 1024.57 1025.22 1025.73
1010.11 1011.10 1012.27 1013.14 1013.46 1013.99 1014.83 1015.64 1016.50 1017.36 1018.05 1018.70 1019.43 1020.15 1020.81 1021.62 1022.27 1023.02 1023.64 1024.19 1024.76 1025.17
1009.47 1010.48 1011.16 1012.29 1012.99 1013.51 1014.48 1015.27 1016.09 1016.80 1017.40 1018.17 1018.76 1019.36 1020.04 1020.86 1021.86 1022.55 1023.16 1023.84 1024.38 1024.81
1008.84 1009.66 1010.78 1011.65 1012.60 1013.01 1013.92 1014.74 1015.58 1016.23 1016.88 1017.64 1018.26 1018.82 1019.56 1020.29 1021.31 1022.07 1022.61 1023.16 1023.88 1024.48
1008.47 1009.40 1010.28 1011.27 1011.95 1012.50 1013.48 1014.11 1014.98 1015.72 1016.37 1017.19 1017.84 1018.52 1019.33 1020.08 1020.78 1021.61 1022.04 1022.48 1023.21 1023.81
1007.87 1008.62 1009.49 1010.74 1011.28 1011.89 1012.84 1013.79 1014.38 1015.16 1016.07 1016.73 1017.47 1018.16 1018.85 1019.74 1020.43 1021.36 1021.83 1022.27 1022.74 1023.24
1007.22 1007.90 1008.91 1009.12 1010.41 1011.39 1012.16 1012.91 1013.89 1014.72 1015.51 1016.14 1016.85 1017.54 1018.27 1019.10 1020.02 1021.07 1021.63 1022.15 1022.56 1023.06
1006.54 1007.36 1007.90 1008.69 1010.06 1011.11 1011.97 1012.82 1013.51 1014.42 1015.31 1015.81 1016.20 1017.22 1017.69 1018.38 1019.38 1020.05 1021.05 1021.53 1022.29 1022.72
Wind_Speed
21 13 13 15 12 10 11 10 12 12 12 12 12 11 11 9 9 8 8 8 5 4
12 16 15 16 13 12 10 9 12 13 13 13 13 13 12 9 10 8 7 7 6 4
16 16 15 15 15 13 11 12 13 13 13 13 13 12 13 9 8 11 6 5 6 5
16 15 13 15 14 15 14 14 14 15 14 14 14 12 12 11 11 12 9 6 8 8
13 13 14 14 14 14 15 14 14 14 14 13 13 13 14 13 12 13 11 9 8 8
14 14 16 15 15 14 14 14 12 13 14 14 13 13 12 13 12 11 11 11 11 10
18 18 17 15 14 15 14 15 14 13 14 13 13 13 12 12 11 10 9 9 9 10
19 17 15 14 15 13 14 14 14 13 12 12 12 10 12 11 11 11 8 7 7 7
16 16 15 13 14 14 13 13 13 13 13 12 9 13 15 13 11 10 11 10 7 6
14 15 15 14 12 14 14 12 13 12 12 12 9 16 17 15 9 10 10 10 9 6
15 16 14 15 15 13 12 14 14 12 12 10 8 16 16 15 9 7 9 10 10 10
15 15 14 14 15 13 11 10 12 11 12 12 9 16 17 15 8 7 8 7 8 10
16 17 18 16 14 11 11 11 9 9 10 12 11 16 18 15 8 7 6 5 6 11
16 17 15 15 11 11 9 9 9 9 6 9 10 11 18 17 10 8 7 7 6 6
Wind_Direction
190 191 189 178 179 179 185 181 170 176 175 173 169 168 174 178 181 181 189 184 179 192
184 192 190 178 180 177 174 172 170 173 174 173 172 170 173 179 181 177 188 190 179 189
180 190 196 174 173 175 180 169 170 170 174 173 176 174 176 178 180 186 187 176 170 193
184 182 186 186 169 174 174 171 174 176 175 175 175 177 182 183 177 187 180 166 180 195
173 175 191 192 178 169 178 176 175 178 178 176 178 176 184 181 183 185 181 180 174 181
181 182 193 193 180 174 171 171 174 174 178 179 180 180 186 184 177 180 181 175 183 177
184 190 196 194 181 175 171 168 175 180 181 180 178 181 176 174 175 179 181 178 185 174
181 190 188 187 180 169 174 177 174 173 179 175 176 179 174 176 173 178 175 178 183 187
179 177 177 180 178 165 171 172 173 178 175 177 185 172 169 167 173 174 178 185 188 188
174 178 181 176 175 169 175 169 181 179 175 183 182 167 170 164 172 175 182 178 179 182
176 179 176 179 180 176 173 177 179 183 182 178 177 167 168 166 158 170 183 179 178 182
181 175 172 189 180 182 174 178 180 178 174 179 171 170 166 166 159 174 185 178 176 183
183 181 180 181 182 180 178 175 167 171 180 174 165 173 169 170 166 173 173 171 181 185
179 180 179 173 171 167 163 156 159 165 166 172 167 175 175 173 173 179 176 185 183 200